Weather History for KNAK - April, 2013

Change the Weather History Date:

Monday, April 8, 2013

  Actual Average (KBWI) Record (KBWI)
Temperature  
Mean Temperature 60 °F 51 °F  
Max Temperature 70 °F 62 °F 91 °F (1929)
Min Temperature 50 °F 41 °F 26 °F (1982)
Degree Days  
Heating Degree Days 5 14  
Month to date heating degree days 121  
Since 1 July heating degree days 4382  
Cooling Degree Days 0 0  
Month to date cooling degree days 0  
Year to date cooling degree days 1  
Growing Degree Days 10 (Base 50)    
Moisture  
Dew Point 49 °F    
Average Humidity 74    
Maximum Humidity 89    
Minimum Humidity 51    
Precipitation  
Precipitation 0.00 in 0.11 in 2.44 in (1935)
Month to date precipitation 0.93  
Year to date precipitation 10.78  
Snow  
Snow 0.00 in 0.00 in 4.00 in (1916)
Month to date snowfall 0.0  
Since 1 July snowfall 20.1  
Snow Depth -    
Sea Level Pressure  
Sea Level Pressure 30.03 in    
Wind  
Wind Speed 6 mph (SE)    
Max Wind Speed 14 mph    
Max Gust Speed -    
Visibility 10 miles    
Events      
T = Trace of Precipitation, MM = Missing Value Source: NWS Daily Summary

Daily Weather History Graph

Daily Weather History Graph

Search for Another Location

Airport or City:

Trip Planner

Search our weather history database for the weather conditions in past years. The results will help you decide how hot, cold, wet, or windy it might be!

Date:

Astronomy

Apr. 08, 2013 Rise Set
Actual Time 6:39 AM EDT 7:36 PM EDT
Civil Twilight 6:12 AM EDT 8:03 PM EDT
Nautical Twilight 5:39 AM EDT 8:36 PM EDT
Astronomical Twilight 5:06 AM EDT 9:09 PM EDT
Moon 5:27 AM EDT (4/8) 6:09 PM EDT (4/8)
Length of Visible Light 13h 51m
Length of Day
12h 57m
Waning Crescent, 3% of the Moon is Illuminated
Apr 8
Waning Crescent
Apr 10
New
Apr 18
First Quarter
Apr 25
Full
May 2
Last Quarter

Hourly Weather History & Observations

Time (EDT) Temp. Dew Point Humidity Pressure Visibility Wind Dir Wind Speed Gust Speed Precip Events Conditions
12:54 AM 50.0 °F 46.9 °F 89% 30.03 in 10.0 mi ESE 4.6 mph - N/A   Clear
1:54 AM 52.0 °F 46.0 °F 80% 30.03 in 10.0 mi SE 5.8 mph - N/A   Clear
2:54 AM 50.0 °F 45.0 °F 83% 30.02 in 10.0 mi SE 4.6 mph - N/A   Clear
3:54 AM 57.0 °F 44.1 °F 62% 30.02 in 10.0 mi Variable 4.6 mph - N/A   Scattered Clouds
4:54 AM 52.0 °F 45.0 °F 77% 30.02 in 10.0 mi Calm Calm - N/A   Clear
5:54 AM 52.0 °F 45.0 °F 77% 30.03 in 10.0 mi SE 3.5 mph - N/A   Clear
6:54 AM 50.0 °F 46.9 °F 89% 30.05 in 10.0 mi ESE 4.6 mph - N/A   Clear
7:54 AM 50.0 °F 46.9 °F 89% 30.07 in 10.0 mi SE 6.9 mph - N/A   Clear
8:54 AM 53.1 °F 46.9 °F 80% 30.08 in 10.0 mi ESE 5.8 mph - N/A   Clear
9:54 AM 53.1 °F 48.0 °F 83% 30.09 in 10.0 mi SE 9.2 mph - N/A   Clear
10:54 AM 54.0 °F 48.0 °F 80% 30.09 in 10.0 mi SE 6.9 mph - N/A   Clear
11:54 AM 57.0 °F 48.0 °F 72% 30.09 in 10.0 mi ESE 11.5 mph - N/A   Clear
12:54 PM 63.0 °F 48.9 °F 60% 30.07 in 10.0 mi SE 10.4 mph - N/A   Clear
1:54 PM 59.0 °F 48.9 °F 69% 30.05 in 10.0 mi SE 12.7 mph - N/A   Clear
2:54 PM 59.0 °F 50.0 °F 72% 30.03 in 10.0 mi SE 11.5 mph - N/A   Clear
3:54 PM 61.0 °F 50.0 °F 67% 30.01 in 10.0 mi SE 10.4 mph - N/A   Clear
4:54 PM 70.0 °F 51.1 °F 51% 29.99 in 10.0 mi South 13.8 mph - N/A   Clear
5:54 PM 66.0 °F 52.0 °F 60% 29.99 in 10.0 mi South 9.2 mph - N/A   Clear
6:54 PM 64.9 °F 52.0 °F 63% 29.99 in 10.0 mi South 9.2 mph - N/A   Clear
7:54 PM 63.0 °F 53.1 °F 70% 29.99 in 10.0 mi South 5.8 mph - N/A   Clear
8:54 PM 63.0 °F 53.1 °F 70% 29.99 in 10.0 mi SSE 9.2 mph - N/A   Clear
9:54 PM 57.9 °F 51.1 °F 78% 30.00 in 10.0 mi South 4.6 mph - N/A   Clear
10:54 PM 59.0 °F 51.1 °F 75% 30.00 in 10.0 mi South 11.5 mph - N/A   Clear
11:54 PM 57.0 °F 51.1 °F 81% 29.98 in 10.0 mi SSE 3.5 mph - N/A   Clear